Flag for U.S.A. Weather past 2 weeks in Simi Valley, California, U.S.A.

Now
48 °F

Sunny.


Feels Like: 48 °F
Forecast: 46 / 66 °F
Wind: No wind

Location: Van Nuys Airport

Current Time: Dec 20, 2014 at 9:02:16 AM

Latest Report: Dec 20, 2014 at 7:51 AM


Visibility: 9 mi

Pressure: 30.16 "Hg

Humidity: 86%

Dew point: 44 °F

Location of Simi ValleyLocation

Historic Weather in Simi Valley — Graph

°F

Simi Valley temperature yesterday

Maximum temperature yesterday: 63 °F (at 12:51 PM)
Minimum temperature yesterday: 45 °F (at 6:51 AM)
Average temperature yesterday: 54 °F

Past Weeks' High & Low Weather Summary

 TemperatureHumidityPressure
High80 °F (Dec 9, 12:51 PM)93% (Dec 11, 10:51 PM)30.23 "Hg (Dec 11, 10:51 PM)
Low41 °F (Dec 14, 6:51 AM)21% (Dec 9, 11:51 AM)29.79 "Hg (Dec 12, 2:58 AM)
Average57 °F69%30.05 "Hg
* Reported Dec 5 7:51 AM — Dec 20 7:51 AM, Simi Valley, Weather by CustomWeather, © 2014

Note: Actual official high and low records may vary slightly from our data, if they occured in-between our weather recording intervals... More about our weather records

Advertising

Simi Valley weather history for previous 24 hours

 ConditionsComfort  
Time TempWeatherWind HumidityBarometerVisibility
7:51 AM
Dec 20
48 °FSunny.No wind86%30.16 "Hg9 mi
6:51 AM47 °FClear.No wind86%30.16 "Hg10 mi
5:51 AM47 °FClear.No wind90%30.14 "Hg10 mi
4:51 AM47 °FClear.No wind93%30.12 "Hg7 mi
3:51 AM47 °FClear.No wind90%30.13 "Hg7 mi
2:51 AM48 °FClear.3 mph89%30.15 "Hg8 mi
1:51 AM48 °FClear.3 mph89%30.14 "Hg9 mi
12:51 AM49 °FClear.No wind90%30.16 "Hg8 mi
11:51 PM
Dec 19
51 °FClear.3 mph89%30.17 "Hg9 mi
10:51 PM50 °FClear.6 mph89%30.15 "Hg9 mi
9:51 PM53 °FClear.No wind83%30.17 "Hg10 mi
8:51 PM54 °FClear.No wind80%30.17 "Hg10 mi
7:51 PM55 °FClear.3 mph77%30.16 "Hg10 mi
6:51 PM57 °FClear.3 mph69%30.17 "Hg10 mi
5:51 PM59 °FClear.5 mph64%30.15 "Hg10 mi
4:51 PM61 °FClear.3 mph60%30.14 "Hg10 mi
3:51 PM62 °FSunny.No wind56%30.13 "Hg10 mi
2:51 PM62 °FSunny.No wind56%30.13 "Hg10 mi
1:51 PM62 °FScattered clouds.6 mph56%30.14 "Hg10 mi
12:51 PM63 °FSunny.5 mph50%30.17 "Hg10 mi
11:51 AM62 °FSunny.3 mph52%30.20 "Hg10 mi
10:51 AM59 °FSunny.No wind58%30.21 "Hg10 mi
9:51 AM56 °FSunny.No wind67%30.22 "Hg10 mi
Weather by CustomWeather, © 2014

See weather overviewHow to use our weather pages